Voltar ao catálogo

HCT-SAT2

AtivoCiênciaSSO
NORAD 66676·PAYLOAD·🇸🇦 Saudi Arabia
Este nome de satélite ainda não foi confirmado por fontes oficiais.

Lançado Nov 28, 2025 de Vandenberg Space Force Base

Loading…

Próximas Passagens (próximas 24 horas)

TLE

AtualizadoSource: Space-Track

Época: Sep 14, 2026, 11:15 UTC

1 66676U 25276L   26257.46935311  .00003905  00000-0  18576-3 0  9994
2 66676  97.4099 329.1293 0007113  61.8488 298.3465 15.19741640 43964

Acompanhe HCT-SAT2 em tempo real com AllMySat

Download on the App Store